Terminal Aerodrome Forecast
Issued by NWS

Home | Current Version | Previous Version | Text Only | Print | Product List | Glossary On
Versions: 1 2 3 4 5 6 7 8 9 10 11 12 13
000
FTUS45 KGGW 282300
TAFSDY
TAF
KSDY 282320Z 0100/0124 27010KT P6SM SCT035
     FM010600 27010KT P6SM VCSH BKN035
     FM011200 29010KT P6SM BKN025
     FM011800 31009KT P6SM SCT028
      AMD LTD TO CLD VIS AND WIND=

USA.gov is the U.S. government's official web portal to all federal, state and local government web resources and services.